This demonstration page uses our WeatherBlox Daily Observations layout. Learn more.

Left ArrowRight Arrow

39.95238, -75.16362

Hourly Observations for May 9, 2015

Temp ( °F °C ) Dew Point ( °F °C ) Humidity (%) Winds ( mph kmh ) Pressure ( in mb ) Visibility ( mi km ) Precip ( " mm )
12:54 am 00:54 Clear 62 16.7 56 13.3 80 80 S 3 6 30.20 1023 10 16 0.00 0.00
1:54 am 01:54 Clear 61 16.1 56 13.3 84 84 Calm 30.19 1023 10 16 0.00 0.00
2:15 am 02:15 Partly Cloudy 61 16.1 56 13.3 84 84 Calm 30.21 1023 8 13 0.00 0.00
2:31 am 02:31 Mostly Cloudy 61 16.1 56 13.3 84 84 Calm 30.21 1023 8 13 0.00 0.00
2:54 am 02:54 Cloudy 63 17.2 58 14.4 84 84 E 3 6 30.20 1023 8 13 0.00 0.00
3:31 am 03:31 Cloudy 63 17.2 58 14.4 84 84 Calm 30.21 1023 8 13 0.00 0.00
3:54 am 03:54 Cloudy 64 17.8 59 15 84 84 Calm 30.21 1023 8 13 0.00 0.00
4:54 am 04:54 Cloudy 64 17.8 59 15 84 84 E 5 7 30.22 1023 8 13 0.00 0.00
5:54 am 05:54 Cloudy 64 17.8 60 15.6 87 87 ENE 7 11 30.23 1024 7 11 0.00 0.00
6:10 am 06:10 Cloudy with Mist and Fog 64 17.8 60 15.6 87 87 ENE 5 7 30.24 1024 5 8 0.00 0.03
6:20 am 06:20 Cloudy with Light Rain 64 17.8 60 15.6 87 87 E 8 13 30.24 1024 3 5 0.00 0.03
6:24 am 06:24 Cloudy with Light Rain 64 18 61 16 88 88 E 8 13 30.24 1024 3 4 0.00 0.00
6:44 am 06:44 Cloudy with Mist and Fog 64 18 61 16 88 88 ENE 3 6 30.24 1024 3 5 0.00 0.00
6:54 am 06:54 Cloudy with Mist and Fog 64 17.8 61 16.1 90 90 NE 5 7 30.25 1024 3 5 0.03 0.76
7:28 am 07:28 Cloudy with Mist and Fog 64 18 63 17 94 94 E 6 9 30.27 1025 3 4 0.00 0.00
7:54 am 07:54 Cloudy with Mist and Fog 65 18.3 62 16.7 90 90 E 9 15 30.26 1025 2 3 0.00 0.00
8:20 am 08:20 Cloudy with Mist and Fog 65 18.3 62 16.7 90 90 E 10 17 30.27 1025 3 5 0.00 0.00
8:54 am 08:54 Cloudy with Mist and Fog 65 18.3 62 16.7 90 90 ENE 8 13 30.25 1025 4 6 0.00 0.00
9:35 am 09:35 Cloudy with Mist and Fog 67 19.4 63 17.2 87 87 ENE 9 15 30.27 1025 5 8 0.00 0.00
9:51 am 09:51 Cloudy with Mist and Fog 66 19 63 17 88 88 ENE 7 11 30.27 1025 6 10 0.00 0.00
9:54 am 09:54 Cloudy with Mist and Fog 67 19.4 62 16.7 84 84 ENE 6 9 30.27 1025 6 10 0.00 0.00
10:08 am 10:08 Cloudy 66 19 63 17 88 88 ENE 7 11 30.27 1025 7 11 0.00 0.00
10:49 am 10:49 Cloudy with Haze 68 20 63 17 83 83 ENE 3 6 30.27 1025 6 10 0.00 0.00
10:54 am 10:54 Cloudy with Haze 68 20 62 16.7 81 81 ENE 3 6 30.28 1025 6 10 0.00 0.00
11:50 am 11:50 Cloudy 70 21 63 17 78 78 E 8 13 30.27 1025 7 11 0.00 0.03
11:54 am 11:54 Cloudy 69 20.6 63 17.2 81 81 E 7 11 30.28 1025 7 11 0.00 0.03
12:15 pm 12:15 Cloudy 69 20.6 63 17.2 81 81 E 8 13 30.27 1025 7 11 0.00 0.00
12:54 pm 12:54 Cloudy 70 21.1 62 16.7 76 76 ENE 6 9 30.27 1025 7 11 0.00 0.00
1:54 pm 13:54 Cloudy 72 22.2 63 17.2 73 73 VRB 5 7 30.25 1024 9 14 0.00 0.00
2:15 pm 14:15 Mostly Cloudy 74 23.3 63 17.2 69 69 ENE 3 6 30.24 1024 9 14 0.00 0.00
2:25 pm 14:25 Mostly Cloudy 75 23.9 64 17.8 69 69 E 6 9 30.24 1024 10 16 0.00 0.00
2:54 pm 14:54 Mostly Cloudy 75 23.9 63 17.2 66 66 VRB 3 6 30.23 1024 10 16 0.00 0.00
3:54 pm 15:54 Mostly Cloudy 77 25 63 17.2 62 62 E 3 6 30.22 1023 10 16 0.00 0.00
4:54 pm 16:54 Mostly Cloudy 79 26.1 64 17.8 60 60 E 7 11 30.20 1023 10 16 0.00 0.00
5:54 pm 17:54 Mostly Cloudy 77 25 65 18.3 66 66 E 9 15 30.19 1023 10 16 0.00 0.00
6:54 pm 18:54 Mostly Cloudy 75 23.9 65 18.3 71 71 E 6 9 30.19 1022 10 16 0.00 0.00
7:54 pm 19:54 Mostly Cloudy 74 23.3 65 18.3 74 74 E 5 7 30.19 1023 10 16 0.00 0.00
8:54 pm 20:54 Mostly Cloudy 74 23.3 63 17.2 69 69 SSW 7 11 30.22 1023 10 16 0.00 0.00
9:54 pm 21:54 Partly Cloudy 72 22.2 63 17.2 73 73 S 5 7 30.23 1024 10 16 0.00 0.00
10:54 pm 22:54 Mostly Cloudy 70 21.1 64 17.8 82 82 Calm 30.23 1024 10 16 0.00 0.00
11:31 pm 23:31 Cloudy 69 20.6 64 17.8 84 84 SE 3 6 30.24 1024 10 16 0.00 0.00
11:54 pm 23:54 Cloudy 69 20.6 64 17.8 84 84 SSE 3 6 30.23 1024 10 16 0.00 0.00

Powered by AerisWeather